Tracking 19149 objects as of 22-Apr-2018
HD Live streaming from Space Station
objects crossing your sky now

STSAT 3

Track STSAT 3 now!
10-day predictions
STSAT 3 is classified as:


NORAD ID: 39422
Int'l Code: 2013-066G
Perigee: 591.2 km
Apogee: 621.5 km
Inclination: 97.6 °
Period: 96.7 minutes
Semi major axis: 6977 km
RCS: 0.4885 m2 (medium)
Launch date: November 21, 2013
Source: South Korea (SKOR)
Launch site: Orenburg, Russia (OREN)
aabbcc
Your satellite tracking list
Your tracking list is empty




NASA's NSSDC Master Catalog

Two Line Element Set (TLE):
1 39422U 13066G   18112.16373870 -.00000055  00000-0 -65788-7 0  9997
2 39422  97.6136 169.0823 0021755 292.3128  67.5795 14.89591956239921
Source of the keplerian elements: AFSPC